Edwards AFB North Base, CA

4:45 PM PDT on October 20, 2017 (GMT -0700)
Edwards AFB North Base

Weather History for K9L2 - January, 2012

Change the Weather History Date:

Sunday, January 8, 2012

  Actual Average (KEDW) Record (KEDW)
Temperature  
Mean Temperature 44 °F -  
Max Temperature 61 °F 57 °F 70 °F (2009)
Min Temperature 27 °F 30 °F 15 °F (2000)
Degree Days  
Heating Degree Days 21    
Moisture  
Dew Point 7 °F    
Average Humidity 26    
Maximum Humidity 43    
Minimum Humidity 10    
Precipitation  
Precipitation 0.00 in - - ()
Sea Level Pressure  
Sea Level Pressure 30.27 in    
Wind  
Wind Speed 4 mph (North)    
Max Wind Speed 9 mph    
Max Gust Speed -    
Visibility 10 miles    
Events      
Averages and records for this station are not official NWS values.
T = Trace of Precipitation, MM = Missing Value Source: NWS Daily Summary

Daily Weather History Graph

Daily Weather History Graph

Search for Another Location

Airport or City:

Trip Planner

Search our weather history database for the weather conditions in past years. The results will help you decide how hot, cold, wet, or windy it might be!

Date:

Astronomy

Jan. 08, 2012 Rise Set
Actual Time 6:59 AM PST 4:56 PM PST
Civil Twilight 6:32 AM PST 5:24 PM PST
Nautical Twilight 6:00 AM PST 5:55 PM PST
Astronomical Twilight 5:30 AM PST 6:26 PM PST
Moon 4:43 PM PST (1/8) 6:21 AM PST (1/8)
Length of Visible Light 10h 51m
Length of Day
9h 56m
Full, 100% of the Moon is Illuminated
Jan 8
Full
Jan 8
Full
Jan 16
Last Quarter
Jan 22
New
Jan 30
First Quarter

Hourly Weather History & Observations

Time (PST) Temp. Windchill Dew Point Humidity Pressure Visibility Wind Dir Wind Speed Gust Speed Precip Events Conditions
12:55 AM 37.9 °F - 5.0 °F 25% 30.21 in 10.0 mi Calm Calm - N/A   Unknown
1:55 AM 39.0 °F 32.8 °F 7.0 °F 27% 30.21 in 10.0 mi NNE 9.2 mph - N/A   Clear
2:55 AM 35.1 °F 29.3 °F 7.0 °F 31% 30.24 in 10.0 mi North 6.9 mph - N/A   Clear
3:55 AM 34.0 °F 29.8 °F 7.0 °F 32% 30.25 in 10.0 mi WSW 4.6 mph - N/A   Clear
4:55 AM 32.0 °F 27.5 °F 7.0 °F 35% 30.27 in 10.0 mi NNW 4.6 mph - N/A   Clear
6:15 AM - - - N/A% - - North - - N/A   Unknown
6:55 AM 27.0 °F 21.6 °F 7.0 °F 43% 30.30 in 10.0 mi WNW 4.6 mph - N/A   Unknown
7:55 AM 35.1 °F - 9.0 °F 34% 30.31 in 10.0 mi Calm Calm - N/A   Unknown
8:55 AM 41.0 °F - 10.0 °F 28% 30.32 in 10.0 mi Calm Calm - N/A   Clear
9:55 AM 48.9 °F - 12.0 °F 23% 30.32 in 10.0 mi East 3.5 mph - N/A   Clear
10:55 AM 54.0 °F - 12.0 °F 19% 30.29 in 10.0 mi East 6.9 mph - N/A   Clear
11:55 AM 55.9 °F - 10.0 °F 16% 30.27 in 10.0 mi ESE 6.9 mph - N/A   Partly Cloudy
12:55 PM 57.9 °F - 7.0 °F 13% 30.24 in 10.0 mi East 5.8 mph - N/A   Clear
2:55 PM 61.0 °F - 6.1 °F 11% 30.21 in 10.0 mi ENE 5.8 mph - N/A   Clear
3:55 PM 61.0 °F - 3.9 °F 10% 30.21 in 10.0 mi NNE 5.8 mph - N/A   Clear
4:55 PM 53.1 °F - 7.0 °F 16% 30.23 in 10.0 mi SSW 5.8 mph - N/A   Clear
5:55 PM 45.0 °F 42.6 °F 6.1 °F 20% 30.26 in 10.0 mi West 4.6 mph - N/A   Clear
6:55 PM 37.9 °F 34.4 °F 6.1 °F 27% 30.28 in 10.0 mi NW 4.6 mph - N/A   Clear
7:55 PM 37.9 °F 35.5 °F 7.0 °F 28% 30.28 in 10.0 mi NNW 3.5 mph - N/A   Clear
9:55 PM 36.0 °F - 6.1 °F 29% 30.29 in 10.0 mi Calm Calm - N/A   Clear
10:55 PM 30.0 °F - 5.0 °F 35% 30.30 in 10.0 mi Calm Calm - N/A   Clear
11:55 PM 28.0 °F 24.2 °F 5.0 °F 38% 30.30 in 10.0 mi NW 3.5 mph - N/A   Clear